GW5972 Weather Reports


time (UTC)temp
F
wind
direction
speed
knots
gust
knots
rain 1hr
in
rain 24hr
in
rain mn
in
humidity
%
barometer
mb
20260507222337 49 152 0.0 0.0 0.00 0.00 0.03 84 1008.0
20260507221836 49 152 0.0 0.0 0.00 0.00 0.03 84 1008.0
20260507221336 49 152 0.0 0.0 0.00 0.00 0.03 85 1008.0
20260507220836 49 152 0.0 0.0 0.00 0.00 0.03 85 1008.0
20260507220337 49 152 0.0 0.0 0.00 0.00 0.03 85 1008.0
20260507215836 49 152 0.0 0.0 0.00 0.00 0.03 85 1008.0
20260507215336 49 152 0.0 0.0 0.00 0.00 0.03 84 1008.0
20260507214837 49 152 0.0 0.0 0.00 0.00 0.03 84 1008.0
20260507214337 49 152 0.0 0.0 0.00 0.00 0.03 83 1008.0
20260507213838 49 152 0.0 0.0 0.00 0.00 0.03 83 1008.0
20260507213336 49 152 0.0 0.0 0.00 0.00 0.03 83 1008.0
20260507212837 49 152 0.0 0.0 0.00 0.00 0.03 83 1008.0
20260507212338 49 152 0.0 0.0 0.00 0.00 0.03 84 1008.0
20260507211837 49 152 0.0 0.0 0.00 0.00 0.03 86 1008.0
20260507211337 49 152 0.0 0.0 0.00 0.00 0.03 87 1008.0
20260507210836 49 152 0.0 0.0 0.00 0.00 0.03 88 1008.0
20260507210337 49 152 0.0 0.0 0.00 0.00 0.03 89 1008.0
20260507205845 50 152 0.0 0.0 0.00 0.00 0.03 90 1008.0
20260507205337 50 152 0.0 0.0 0.00 0.00 0.03 90 1008.0
20260507204837 50 152 0.0 0.0 0.00 0.00 0.03 90 1008.0
20260507204337 50 152 0.0 0.0 0.00 0.00 0.03 90 1008.0
20260507203837 50 152 0.0 0.0 0.00 0.00 0.03 90 1008.0
20260507203337 50 152 0.0 0.0 0.00 0.00 0.03 90 1008.0
20260507202836 50 152 0.0 0.0 0.00 0.00 0.03 89 1008.0
20260507202336 50 152 0.0 0.0 0.00 0.00 0.03 89 1008.0
20260507201836 50 152 0.0 0.0 0.00 0.00 0.03 89 1008.0
20260507201336 50 152 0.0 0.0 0.00 0.00 0.03 88 1008.0
20260507200837 50 152 0.0 0.0 0.00 0.00 0.03 88 1008.0
20260507200336 50 152 0.0 0.0 0.00 0.00 0.03 88 1008.0
20260507195837 51 152 0.0 0.0 0.00 0.00 0.03 88 1007.0
20260507195337 51 152 0.0 0.0 0.00 0.00 0.03 88 1007.0
20260507194836 51 152 0.0 0.0 0.00 0.00 0.03 87 1007.0
20260507194336 51 152 0.0 0.0 0.00 0.00 0.03 87 1007.0
20260507193837 51 152 0.0 0.0 0.00 0.00 0.03 87 1007.0
20260507193338 51 152 0.0 0.0 0.00 0.00 0.03 86 1007.0
20260507192836 51 152 0.0 0.0 0.00 0.00 0.03 86 1007.0
20260507192337 52 152 0.0 0.0 0.00 0.00 0.03 86 1007.0
20260507191837 52 152 0.0 0.0 0.00 0.00 0.03 86 1007.0
20260507191336 52 152 0.0 0.0 0.00 0.00 0.03 86 1007.0
20260507190837 52 152 0.0 0.0 0.00 0.00 0.03 85 1007.0
20260507190337 52 152 0.0 0.0 0.00 0.00 0.03 85 1007.0
20260507185837 52 152 0.0 0.0 0.00 0.00 0.03 85 1007.0
20260507185336 52 152 0.0 0.0 0.00 0.00 0.03 85 1007.0
20260507184838 53 152 0.0 0.0 0.00 0.00 0.03 86 1007.0
20260507184336 53 152 0.0 0.0 0.00 0.00 0.03 86 1007.0
20260507183836 52 152 0.0 0.0 0.00 0.00 0.03 86 1007.0
20260507183337 52 152 0.0 0.0 0.00 0.00 0.03 86 1007.0
20260507182836 52 152 0.0 0.0 0.00 0.00 0.03 86 1007.0
20260507182337 52 152 0.0 0.0 0.00 0.00 0.03 86 1007.0
20260507181837 52 152 0.0 0.0 0.00 0.00 0.03 86 1007.0
20260507181336 52 152 0.0 0.0 0.00 0.00 0.03 86 1007.0
20260507180836 52 152 0.0 0.0 0.00 0.00 0.03 86 1007.0
20260507180337 52 152 0.0 0.0 0.00 0.00 0.03 86 1007.0
20260507175838 52 152 0.0 0.0 0.00 0.00 0.03 86 1007.0
20260507175337 52 152 0.0 0.0 0.00 0.00 0.03 85 1007.0
20260507174838 51 152 0.0 0.0 0.00 0.00 0.03 85 1007.0
20260507174336 51 152 0.0 0.9 0.00 0.00 0.03 85 1007.0
20260507173837 51 153 0.0 0.0 0.00 0.00 0.03 86 1007.0
20260507173336 51 153 0.0 0.0 0.00 0.00 0.03 86 1007.0
20260507172836 51 156 0.0 0.9 0.02 0.00 0.03 85 1007.0
20260507172336 51 108 0.0 0.0 0.05 0.00 0.03 85 1007.0
20260507171837 51 82 0.0 0.9 0.05 0.00 0.02 84 1007.0
20260507171336 52 96 0.9 0.9 0.05 0.00 0.02 84 1007.0
20260507170837 52 102 0.0 0.0 0.05 0.00 0.02 83 1007.0
20260507170339 52 106 0.0 0.9 0.02 0.00 0.01 81 1007.0
20260507165837 53 79 1.7 1.7 0.02 0.00 0.01 78 1007.0
20260507165337 55 138 1.7 2.6 0.02 0.00 0.00 73 1007.0
20260507164837 56 140 0.0 4.3 0.02 0.00 0.00 70 1007.0
20260507164336 57 124 0.0 1.7 0.00 0.00 0.00 62 1007.0
20260507163837 57 167 1.7 1.7 0.00 0.00 0.00 58 1007.0
20260507163337 57 213 2.6 4.3 0.00 0.00 0.00 57 1007.0
20260507162838 58 211 0.9 0.9 0.00 0.00 0.00 57 1007.0
20260507162337 58 145 0.9 1.7 0.00 0.00 0.00 56 1007.0
20260507161837 58 157 0.9 0.9 0.00 0.00 0.00 56 1007.0
20260507161337 58 211 0.0 0.9 0.00 0.00 0.00 56 1007.0
20260507160837 59 135 1.7 2.6 0.00 0.00 0.00 55 1007.0
20260507160337 59 189 0.0 2.6 0.00 0.00 0.00 55 1007.0
20260507155837 59 201 0.0 0.9 0.00 0.00 0.00 55 1007.0
20260507155337 59 227 1.7 4.3 0.00 0.00 0.00 55 1007.0
20260507154837 58 187 0.9 1.7 0.00 0.00 0.00 56 1007.0
20260507154337 58 185 0.9 0.9 0.00 0.00 0.00 55 1007.0
20260507153837 58 193 0.9 2.6 0.00 0.00 0.00 56 1007.0
20260507153337 58 222 0.9 1.7 0.00 0.00 0.00 56 1007.0
20260507152836 57 166 0.0 1.7 0.00 0.00 0.00 57 1007.0
20260507152336 57 210 0.0 0.9 0.00 0.00 0.00 56 1007.0
20260507151837 57 163 0.9 0.9 0.00 0.00 0.00 56 1007.0
20260507151337 57 204 0.0 0.0 0.00 0.00 0.00 57 1007.0
20260507150837 57 162 2.6 4.3 0.00 0.00 0.00 55 1007.0
20260507150337 57 221 1.7 2.6 0.00 0.00 0.00 56 1007.0
20260507145836 57 156 1.7 2.6 0.00 0.00 0.00 56 1007.0
20260507145336 57 221 1.7 5.2 0.00 0.00 0.00 56 1007.0
20260507144837 58 119 0.9 1.7 0.00 0.00 0.00 56 1007.0
20260507144336 58 191 1.7 1.7 0.00 0.00 0.00 57 1007.0
20260507143837 58 190 0.0 1.7 0.00 0.00 0.00 55 1007.0
20260507143337 58 188 0.0 0.0 0.00 0.00 0.00 57 1007.0
20260507142837 58 220 0.9 2.6 0.00 0.00 0.00 56 1007.0
20260507142336 58 105 1.7 2.6 0.00 0.00 0.00 57 1007.0
20260507141837 58 206 0.9 1.7 0.00 0.00 0.00 58 1007.0
20260507141337 57 151 0.9 1.7 0.00 0.00 0.00 59 1007.0
20260507140837 57 218 0.0 0.9 0.00 0.00 0.00 59 1007.0
20260507140337 58 87 1.7 2.6 0.00 0.00 0.00 57 1008.0
20260507135837 58 223 0.0 2.6 0.00 0.00 0.00 58 1008.0
20260507135337 59 164 0.0 1.7 0.00 0.00 0.00 57 1008.0
20260507134837 59 154 0.0 0.9 0.00 0.00 0.00 56 1008.0
20260507134337 59 216 2.6 2.6 0.00 0.00 0.00 56 1007.0
20260507133836 59 206 0.9 4.3 0.00 0.00 0.00 56 1007.0
20260507133339 59 211 0.9 4.3 0.00 0.00 0.00 56 1008.0
20260507132836 59 131 0.0 1.7 0.00 0.00 0.00 57 1008.0
20260507132336 58 139 0.9 0.9 0.00 0.00 0.00 59 1008.0
20260507131837 58 146 0.9 1.7 0.00 0.00 0.00 58 1008.0
20260507131337 58 183 0.0 0.9 0.00 0.00 0.00 60 1008.0
20260507130838 58 202 0.0 0.9 0.00 0.00 0.00 61 1008.0
20260507130336 58 232 0.0 1.7 0.00 0.00 0.00 60 1008.0
20260507125837 58 241 0.9 1.7 0.00 0.00 0.00 59 1008.0
20260507125337 57 175 0.0 0.0 0.00 0.00 0.00 61 1008.0
20260507124836 57 205 0.9 2.6 0.00 0.00 0.00 59 1008.0
20260507124337 57 105 1.7 1.7 0.00 0.00 0.00 60 1008.0
20260507123837 57 169 0.0 1.7 0.00 0.00 0.00 61 1008.0
20260507123336 57 89 0.0 0.0 0.00 0.00 0.00 62 1008.0
20260507122837 56 152 0.0 0.9 0.00 0.00 0.00 61 1008.0
20260507122337 56 110 0.0 0.9 0.00 0.00 0.00 62 1008.0
20260507121837 56 196 1.7 5.2 0.00 0.00 0.00 61 1008.0
20260507121337 56 240 1.7 2.6 0.00 0.00 0.00 63 1008.0
20260507120837 56 130 0.9 1.7 0.00 0.00 0.00 62 1008.0
20260507120343 57 184 0.0 2.6 0.00 0.00 0.00 62 1008.0
20260507115837 56 168 0.9 0.9 0.00 0.00 0.00 63 1008.0
20260507115336 56 183 0.0 0.9 0.00 0.00 0.00 64 1008.0
20260507114837 55 175 0.0 1.7 0.00 0.00 0.00 64 1008.0
20260507114336 55 192 0.0 1.7 0.00 0.00 0.00 65 1008.0
20260507113837 55 138 0.0 0.9 0.00 0.00 0.00 66 1008.0
20260507113338 54 157 0.9 2.6 0.00 0.00 0.00 67 1008.0
20260507112837 53 125 0.0 0.9 0.00 0.00 0.00 68 1008.0
20260507112339 53 128 0.0 0.9 0.00 0.00 0.00 68 1008.0
20260507111838 53 220 0.0 1.7 0.00 0.00 0.00 69 1008.0
20260507111338 52 149 0.0 0.9 0.00 0.00 0.00 71 1008.0
20260507110836 52 157 0.0 0.9 0.00 0.00 0.00 71 1008.0
20260507110336 51 204 0.0 0.0 0.00 0.00 0.00 73 1008.0
20260507105837 51 204 0.9 0.9 0.00 0.00 0.00 74 1008.0
20260507105337 51 172 0.9 1.7 0.00 0.00 0.00 74 1008.0
20260507104836 50 153 0.0 0.9 0.00 0.00 0.00 76 1008.0
20260507104336 50 160 0.0 0.0 0.00 0.00 0.00 76 1008.0
20260507103837 50 217 0.9 0.9 0.00 0.00 0.00 76 1009.0
20260507103337 49 122 0.0 0.9 0.00 0.00 0.00 77 1009.0
20260507102836 49 175 0.0 0.0 0.00 0.00 0.00 77 1009.0
20260507102337 49 208 0.0 0.9 0.00 0.00 0.00 77 1008.0
20260507101837 49 206 0.0 0.9 0.00 0.00 0.00 77 1008.0
20260507101336 49 211 0.0 1.7 0.00 0.00 0.00 77 1008.0
20260507100836 49 208 1.7 1.7 0.00 0.00 0.00 77 1008.0
20260507100337 49 198 0.9 1.7 0.00 0.00 0.00 77 1008.0
20260507095838 49 203 2.6 4.3 0.00 0.00 0.00 76 1008.0
20260507095336 49 150 0.0 0.9 0.00 0.00 0.00 77 1008.0
20260507094838 49 219 0.0 0.9 0.00 0.00 0.00 78 1008.0
20260507094337 49 180 0.9 1.7 0.00 0.00 0.00 79 1008.0
20260507093837 48 173 0.0 0.9 0.00 0.00 0.00 79 1008.0
20260507093336 48 208 0.0 0.9 0.00 0.00 0.00 79 1008.0
20260507092838 48 161 0.0 0.9 0.00 0.00 0.00 79 1008.0
20260507092337 48 184 0.9 1.7 0.00 0.00 0.00 79 1008.0
20260507091836 48 233 0.0 0.0 0.00 0.00 0.00 80 1008.0
20260507091337 48 227 0.9 0.9 0.00 0.00 0.00 80 1008.0
20260507090836 47 179 0.0 1.7 0.00 0.00 0.00 80 1008.0
20260507090337 47 217 0.9 1.7 0.00 0.00 0.00 80 1008.0
20260507085837 47 190 0.0 0.9 0.00 0.00 0.00 80 1008.0
20260507085336 47 210 0.0 0.0 0.00 0.00 0.00 81 1008.0
20260507084837 47 211 0.0 0.9 0.00 0.00 0.00 80 1008.0
20260507084336 47 182 0.9 1.7 0.00 0.00 0.00 80 1008.0
20260507083837 47 176 0.0 2.6 0.00 0.00 0.00 81 1008.0
20260507083336 47 207 0.0 0.9 0.00 0.00 0.00 81 1008.0
20260507082837 47 183 0.0 0.9 0.00 0.00 0.00 81 1008.0
20260507082337 47 205 0.9 4.3 0.00 0.00 0.00 81 1008.0
20260507081837 47 204 0.9 1.7 0.00 0.00 0.00 80 1008.0
20260507081337 47 236 0.0 0.0 0.00 0.00 0.00 81 1008.0
20260507080837 47 216 0.9 1.7 0.00 0.00 0.00 81 1008.0
20260507080336 47 215 0.9 0.9 0.00 0.00 0.00 81 1008.0
20260507075837 46 189 0.0 0.9 0.00 0.00 0.00 81 1008.0
20260507075336 46 158 0.9 2.6 0.00 0.00 0.00 81 1008.0
20260507074837 46 149 0.0 0.9 0.00 0.00 0.00 81 1008.0
20260507074337 46 196 0.0 4.3 0.00 0.00 0.00 81 1008.0
20260507073836 46 215 2.6 4.3 0.00 0.00 0.00 81 1008.0
20260507073337 46 167 0.9 0.9 0.00 0.00 0.00 81 1008.0
20260507072837 46 171 0.0 0.9 0.00 0.00 0.00 82 1008.0
20260507072339 46 203 0.0 0.9 0.00 0.00 0.00 82 1008.0
20260507071837 46 191 0.9 1.7 0.00 0.00 0.00 81 1008.0
20260507071336 46 241 0.0 0.0 0.00 0.00 0.00 82 1008.0
20260507070837 46 94 0.9 2.6 0.00 0.00 0.00 82 1008.0
20260507070338 46 224 2.6 4.3 0.00 0.00 0.00 82 1008.0
20260507065837 46 208 1.7 2.6 0.00 0.00 0.00 81 1008.0
20260507065337 46 191 1.7 4.3 0.00 0.00 0.00 81 1008.0
20260507064836 46 188 0.9 0.9 0.00 0.00 0.00 81 1008.0
20260507064337 46 359 0.9 1.7 0.00 0.00 0.00 81 1008.0
20260507063836 46 199 0.9 1.7 0.00 0.00 0.00 81 1008.0
20260507063337 46 149 0.9 0.9 0.00 0.00 0.00 81 1008.0
20260507062836 46 211 0.0 0.0 0.00 0.00 0.00 82 1008.0
20260507062337 46 220 1.7 1.7 0.00 0.00 0.00 82 1008.0
20260507061836 46 236 0.0 1.7 0.00 0.00 0.00 82 1008.0
20260507061337 46 209 0.9 0.9 0.00 0.00 0.00 82 1008.0
20260507060836 46 206 0.0 0.9 0.00 0.00 0.00 82 1008.0
20260507060336 46 209 0.9 1.7 0.00 0.00 0.00 82 1008.0
20260507055837 46 203 0.9 2.6 0.00 0.00 0.00 82 1008.0
20260507055336 45 108 0.0 0.9 0.00 0.00 0.00 83 1008.0
20260507054836 45 211 0.0 0.9 0.00 0.00 0.00 83 1008.0
20260507054337 45 171 0.0 0.9 0.00 0.00 0.00 83 1008.0
20260507053837 45 217 0.9 1.7 0.00 0.00 0.00 83 1008.0
20260507053337 45 216 1.7 1.7 0.00 0.00 0.00 83 1008.0
20260507052836 45 183 0.9 2.6 0.00 0.00 0.00 83 1008.0
20260507052337 45 156 0.9 0.9 0.00 0.00 0.00 83 1008.0
20260507051836 45 145 0.0 2.6 0.00 0.00 0.00 82 1008.0
20260507051337 45 201 0.9 0.9 0.00 0.00 0.00 83 1008.0
20260507050837 45 211 1.7 1.7 0.00 0.00 0.00 83 1008.0
20260507050336 45 185 0.9 0.9 0.00 0.00 0.00 82 1008.0
20260507045836 45 186 0.9 2.6 0.00 0.00 0.00 82 1008.0
20260507045336 45 86 1.7 1.7 0.00 0.00 0.00 82 1008.0
20260507044836 45 245 0.9 7.0 0.00 0.00 0.00 82 1008.0
20260507044336 45 127 1.7 1.7 0.00 0.00 0.00 82 1008.0
20260507043837 45 182 0.0 0.9 0.00 0.00 0.00 82 1008.0
20260507043337 45 224 0.0 1.7 0.00 0.00 0.00 82 1008.0
20260507042837 45 125 0.0 0.9 0.00 0.00 0.00 82 1008.0
20260507042337 45 185 0.0 1.7 0.00 0.00 0.00 82 1008.0
20260507041836 45 145 1.7 5.2 0.00 0.00 0.00 82 1008.0
20260507041336 45 185 0.0 1.7 0.00 0.00 0.00 82 1008.0
20260507040837 45 224 1.7 2.6 0.00 0.00 0.00 81 1008.0
20260507040336 45 144 0.9 0.9 0.00 0.00 0.00 81 1008.0
20260507035836 45 219 0.9 2.6 0.00 0.00 0.00 81 1008.0
20260507035338 45 135 0.0 1.7 0.00 0.00 0.00 81 1008.0
20260507034836 45 215 0.9 1.7 0.00 0.00 0.00 81 1008.0
20260507034336 45 239 0.0 0.9 0.00 0.00 0.00 81 1008.0
20260507033837 45 199 0.9 2.6 0.00 0.00 0.00 81 1008.0
20260507033341 45 181 0.0 0.9 0.00 0.00 0.00 81 1008.0
20260507032848 45 209 0.9 0.9 0.00 0.00 0.00 81 1008.0
20260507032337 45 174 0.0 0.9 0.00 0.00 0.00 81 1008.0
20260507031838 45 205 0.0 0.9 0.00 0.00 0.00 81 1008.0
20260507031337 45 208 0.0 1.7 0.00 0.00 0.00 81 1008.0
20260507030837 45 215 0.0 0.0 0.00 0.00 0.00 81 1008.0
20260507030336 45 183 0.0 0.9 0.00 0.00 0.00 81 1008.0
20260507025837 45 183 0.9 2.6 0.00 0.00 0.00 81 1008.0
20260507025337 45 180 0.9 1.7 0.00 0.00 0.00 80 1008.0
20260507024837 45 142 0.0 0.9 0.00 0.00 0.00 80 1008.0
20260507024337 45 174 0.0 0.9 0.00 0.00 0.00 80 1008.0
20260507023837 45 175 0.0 0.9 0.00 0.00 0.00 80 1008.0
20260507023337 45 138 0.9 0.9 0.00 0.00 0.00 80 1008.0
20260507022838 45 215 2.6 4.3 0.00 0.00 0.00 80 1008.0
20260507022336 45 215 0.9 1.7 0.00 0.00 0.00 80 1008.0
20260507021836 45 195 0.0 0.9 0.00 0.00 0.00 79 1008.0
20260507021336 45 199 0.0 0.9 0.00 0.00 0.00 79 1008.0
20260507020837 45 176 0.0 0.9 0.00 0.00 0.00 79 1008.0
20260507020337 45 190 0.9 1.7 0.00 0.00 0.00 79 1008.0
20260507015408 45 192 0.0 2.6 0.00 0.00 0.00 79 1008.0
20260507014837 45 208 0.9 1.7 0.00 0.00 0.00 78 1008.0
20260507014337 45 193 0.9 1.7 0.00 0.00 0.00 78 1008.0
20260507013836 45 218 0.0 2.6 0.00 0.00 0.00 78 1008.0
20260507013336 45 199 1.7 2.6 0.00 0.00 0.00 78 1008.0
20260507012837 46 179 0.9 1.7 0.00 0.00 0.00 77 1008.0
20260507012337 46 144 0.0 1.7 0.00 0.00 0.00 77 1008.0
20260507011837 46 185 0.9 2.6 0.00 0.00 0.00 77 1008.0
20260507011337 46 217 0.9 4.3 0.00 0.00 0.00 77 1008.0
20260507010837 46 212 1.7 1.7 0.00 0.00 0.00 77 1008.0
20260507010336 46 194 0.9 1.7 0.00 0.00 0.00 77 1008.0
20260507005837 46 118 1.7 1.7 0.00 0.00 0.00 76 1008.0
20260507005337 46 111 2.6 4.3 0.00 0.00 0.00 76 1008.0
20260507004836 46 209 0.0 1.7 0.00 0.00 0.00 76 1008.0
20260507004337 46 112 0.9 1.7 0.00 0.00 0.00 76 1008.0
20260507003836 47 196 0.0 0.9 0.00 0.00 0.00 76 1008.0
20260507003336 47 160 0.0 0.9 0.00 0.00 0.00 76 1009.0
20260507002843 47 207 0.0 1.7 0.00 0.00 0.00 76 1009.0
20260507002337 47 190 0.0 4.3 0.00 0.00 0.00 77 1008.0
20260507001836 47 145 0.0 0.9 0.00 0.00 0.00 77 1009.0
20260507001338 47 205 2.6 2.6 0.00 0.00 0.00 77 1009.0
20260507000837 47 167 0.0 1.7 0.00 0.00 0.00 77 1009.0
20260507000336 47 114 0.0 1.7 0.00 0.00 0.00 77 1009.0
20260506235836 47 254 2.6 2.6 0.00 0.00 0.02 77 1008.0
20260506235337 47 121 1.7 2.6 0.00 0.00 0.02 77 1009.0
20260506234837 47 153 0.0 2.6 0.00 0.00 0.02 76 1008.0
20260506234337 47 208 0.9 6.1 0.00 0.00 0.02 76 1009.0
20260506233836 47 186 0.0 0.9 0.00 0.00 0.02 76 1009.0
20260506233336 47 129 0.9 0.9 0.00 0.00 0.02 75 1009.0
20260506232837 47 133 1.7 4.3 0.00 0.00 0.02 75 1008.0
20260506232336 47 148 0.0 2.6 0.00 0.00 0.02 74 1008.0
20260506231836 47 217 0.9 1.7 0.00 0.00 0.02 74 1008.0
20260506231336 48 193 0.9 0.9 0.00 0.00 0.02 74 1008.0
20260506230837 48 187 0.0 0.0 0.00 0.00 0.02 73 1008.0
20260506230337 48 182 0.0 2.6 0.00 0.00 0.02 73 1008.0
20260506225836 48 192 0.9 1.7 0.00 0.00 0.02 73 1008.0
20260506225336 48 171 0.9 0.9 0.00 0.00 0.02 72 1008.0
20260506224837 48 184 0.0 0.9 0.00 0.00 0.02 72 1008.0
20260506224337 48 207 0.9 2.6 0.00 0.00 0.02 71 1008.0
20260506223837 48 159 0.0 1.7 0.00 0.00 0.02 71 1008.0
20260506223336 49 211 0.9 0.9 0.00 0.00 0.02 70 1008.0
20260506222837 49 190 0.0 0.9 0.00 0.00 0.02 70 1008.0